DW9852 Weather Reports


time (UTC)temp
C
wind
direction
speed
KPH
gust
KPH
rain 1hr
cm
rain 24hr
cm
rain mn
cm
humidity
%
barometer
mb
20260505102040 -17 0.0 0.0 0.00 0.00 0.00 1010.0
20260505101549 -17 0.0 0.0 0.00 0.00 0.00 1009.9
20260505101041 -17 0.0 0.0 0.00 0.00 0.00 1010.1
20260505100542 -17 0.0 0.0 0.00 0.00 0.00 1010.0
20260505100047 -17 0.0 0.0 0.00 0.00 0.00 1010.0
20260505095542 -17 0.0 0.0 0.00 0.00 0.00 1010.0
20260505095038 -17 0.0 0.0 0.00 0.00 0.00 1010.1
20260505094601 -17 0.0 0.0 0.00 0.00 0.00 1010.2
20260505094037 -17 0.0 0.0 0.00 0.00 0.00 1010.2
20260505093542 -17 0.0 0.0 0.00 0.00 0.00 1010.3
20260505093053 -17 1.6 9.7 0.00 0.00 0.00 93 1010.3
20260505092541 -17 212 3.2 9.7 0.00 0.00 0.00 93 1010.3
20260505092037 20 236 1.6 8.0 0.00 0.00 0.00 93 1010.3
20260505091541 20 0 1.6 4.8 0.00 0.00 0.00 93 1010.2
20260505091038 20 245 0.0 3.2 0.00 0.00 0.00 93 1010.3
20260505090538 20 224 0.0 3.2 0.00 0.00 0.00 93 1010.3
20260505090058 20 231 0.0 3.2 0.00 0.00 0.00 93 1010.3
20260505085539 20 0 0.0 12.9 0.00 0.00 0.00 93 1010.3
20260505085040 20 0 0.0 12.9 0.00 0.00 0.00 93 1010.4
20260505084554 20 243 1.6 11.3 0.00 0.00 0.00 93 1010.3
20260505084039 20 0 4.8 14.5 0.00 0.00 0.00 92 1010.2
20260505083539 20 0 3.2 14.5 0.00 0.00 0.00 92 1010.4
20260505083058 20 255 0.0 9.7 0.00 0.00 0.00 92 1010.5
20260505082539 20 231 1.6 9.7 0.00 0.00 0.00 92 1010.7
20260505082039 20 251 1.6 12.9 0.00 0.00 0.00 92 1010.9
20260505081555 20 0 0.0 12.9 0.00 0.00 0.00 92 1011.0
20260505081037 20 143 1.6 12.9 0.00 0.00 0.00 92 1010.9
20260505080539 20 0 4.8 11.3 0.00 0.00 0.00 92 1010.8
20260505080051 20 0 1.6 9.7 0.00 0.00 0.00 92 1010.8
20260505075540 20 244 3.2 11.3 0.00 0.00 0.00 92 1010.9
20260505075039 20 208 0.0 11.3 0.00 0.00 0.00 92 1011.1
20260505074548 20 211 1.6 9.7 0.00 0.00 0.00 92 1011.0
20260505074040 20 0 3.2 8.0 0.00 0.00 0.00 91 1011.2
20260505073539 20 0 0.0 11.3 0.00 0.00 0.00 91 1011.2
20260505073048 20 189 1.6 11.3 0.00 0.00 0.00 91 1011.3
20260505072540 20 231 1.6 9.7 0.00 0.00 0.00 91 1011.3
20260505072039 20 0 3.2 9.7 0.00 0.00 0.00 91 1011.4
20260505071552 20 202 1.6 11.3 0.00 0.00 0.00 91 1011.5
20260505071038 21 177 3.2 14.5 0.00 0.00 0.00 91 1011.7
20260505070539 20 222 3.2 14.5 0.00 0.00 0.00 91 1011.7
20260505070054 21 216 0.0 9.7 0.00 0.00 0.00 91 1011.6
20260505065537 20 194 3.2 9.7 0.00 0.00 0.00 91 1011.7
20260505065038 20 0 1.6 9.7 0.00 0.00 0.00 91 1011.8
20260505064550 20 203 1.6 11.3 0.00 0.00 0.00 91 1011.9
20260505064038 20 229 1.6 11.3 0.00 0.00 0.00 91 1012.0
20260505063540 20 204 0.0 11.3 0.00 0.00 0.00 91 1012.0
20260505063049 20 0 0.0 11.3 0.00 0.00 0.00 90 1011.9
20260505062540 21 204 0.0 8.0 0.00 0.00 0.00 90 1012.0
20260505062042 21 188 0.0 8.0 0.00 0.00 0.00 90 1012.0
20260505061551 21 209 1.6 8.0 0.00 0.00 0.00 90 1012.0
20260505061041 21 223 1.6 12.9 0.00 0.00 0.00 90 1011.9
20260505060540 21 215 3.2 12.9 0.00 0.00 0.00 89 1012.1
20260505060052 21 158 3.2 12.9 0.00 0.00 0.00 89 1012.2
20260505055541 21 0 1.6 9.7 0.00 0.00 0.00 89 1012.2
20260505055041 21 264 1.6 11.3 0.00 0.00 0.00 89 1012.1
20260505054555 21 72 0.0 16.1 0.00 0.00 0.00 88 1012.2
20260505054040 21 251 4.8 16.1 0.00 0.00 0.00 88 1012.2
20260505053539 21 0 4.8 19.3 0.00 0.00 0.00 88 1012.2
20260505053049 21 204 4.8 19.3 0.00 0.00 0.00 88 1012.3
20260505052540 21 132 1.6 17.7 0.00 0.00 0.00 88 1012.2
20260505052040 21 208 6.4 17.7 0.00 0.00 0.00 88 1012.2
20260505051545 21 213 3.2 16.1 0.00 0.00 0.00 88 1012.0
20260505051038 21 176 1.6 12.9 0.00 0.00 0.00 87 1012.1
20260505050542 21 238 6.4 12.9 0.00 0.00 0.00 87 1012.2
20260505041549 22 39 4.8 17.7 0.00 0.00 0.00 85 1012.1
20260505041038 22 208 3.2 17.7 0.00 0.00 0.00 84 1012.0
20260505040538 22 222 1.6 14.5 0.00 0.00 0.00 84 1012.2
20260505040057 22 156 3.2 14.5 0.00 0.00 0.00 84 1012.2
20260505035541 22 204 3.2 16.1 0.00 0.00 0.00 83 1012.1
20260505035038 23 0 1.6 16.1 0.00 0.00 0.00 83 1012.0
20260505034552 23 94 1.6 16.1 0.00 0.00 0.00 83 1011.9
20260505034041 23 184 0.0 11.3 0.00 0.00 0.00 82 1011.9
20260505033540 23 240 1.6 11.3 0.00 0.00 0.00 81 1012.0
20260505033129 23 0 0.0 9.7 0.00 0.00 0.00 81 1011.9
20260505032542 23 0 1.6 9.7 0.00 0.00 0.00 80 1012.0
20260505032038 23 39 0.0 9.7 0.00 0.00 0.00 80 1011.9
20260505031557 23 128 0.0 9.7 0.00 0.00 0.00 79 1011.9
20260505031040 23 184 0.0 9.7 0.00 0.00 0.00 78 1011.9
20260505030539 23 209 0.0 11.3 0.00 0.00 0.00 78 1012.0
20260505030049 23 0 0.0 11.3 0.00 0.00 0.00 78 1012.0
20260505025541 23 56 0.0 4.8 0.00 0.00 0.00 77 1012.0
20260505025038 24 0 0.0 8.0 0.00 0.00 0.00 76 1012.0
20260505024550 23 240 0.0 8.0 0.00 0.00 0.00 77 1012.0
20260505024043 23 0 0.0 8.0 0.00 0.00 0.00 76 1012.0
20260505023540 24 0 0.0 8.0 0.00 0.00 0.00 76 1011.9
20260505023046 24 205 0.0 6.4 0.00 0.00 0.00 75 1011.9
20260505022538 24 0 0.0 6.4 0.00 0.00 0.00 75 1011.8
20260505022041 24 0 0.0 4.8 0.00 0.00 0.00 74 1011.8
20260505021549 24 0 0.0 1.6 0.00 0.00 0.00 74 1011.9
20260505021040 25 0 0.0 3.2 0.00 0.00 0.00 73 1011.9
20260505020540 25 0 0.0 3.2 0.00 0.00 0.00 73 1011.6
20260505020051 25 0 0.0 3.2 0.00 0.00 0.00 73 1011.4
20260505015541 25 198 0.0 9.7 0.00 0.00 0.00 73 1011.2
20260505015041 25 198 0.0 9.7 0.00 0.00 0.00 72 1011.3
20260505014602 25 217 0.0 4.8 0.00 0.00 0.00 72 1011.4
20260505014044 25 212 0.0 4.8 0.00 0.00 0.00 72 1011.4
20260505013541 25 0 0.0 3.2 0.00 0.00 0.00 72 1011.3
20260505013045 25 0 0.0 6.4 0.00 0.00 0.00 71 1011.4
20260505012541 25 0 1.6 8.0 0.00 0.00 0.00 70 1011.4
20260505012043 25 231 0.0 8.0 0.00 0.00 0.00 70 1011.2
20260505011549 25 0 0.0 8.0 0.00 0.00 0.00 69 1011.2
20260505011041 26 0 0.0 6.4 0.00 0.00 0.00 68 1011.2
20260505010543 26 195 0.0 6.4 0.00 0.00 0.00 68 1011.2
20260505010047 26 0 1.6 6.4 0.00 0.00 0.00 67 1011.3
20260505005539 26 0 0.0 11.3 0.00 0.00 0.00 67 1011.3
20260505005039 26 0 4.8 12.9 0.00 0.00 0.00 66 1011.2
20260505004554 26 0 1.6 16.1 0.00 0.00 0.00 66 1011.1
20260505004038 26 0 1.6 16.1 0.00 0.00 0.00 65 1011.0
20260505003538 26 208 1.6 16.1 0.00 0.00 0.00 65 1011.0
20260505003046 26 207 4.8 16.1 0.00 0.00 0.00 65 1010.8
20260505002542 26 209 4.8 11.3 0.00 0.00 0.00 64 1010.9
20260505002039 27 175 0.0 16.1 0.00 0.00 0.00 65 1011.1
20260505001550 27 66 0.0 16.1 0.00 0.00 0.00 65 1011.0
20260505001038 27 209 4.8 11.3 0.00 0.00 0.00 65 1011.1
20260505000538 27 206 3.2 16.1 0.00 0.00 0.00 65 1011.1
20260505000055 27 172 6.4 16.1 0.00 0.00 0.00 64 1011.3
20260504235542 27 221 1.6 16.1 0.00 0.00 0.00 64 1011.1
20260504235043 27 175 3.2 16.1 0.00 0.00 0.00 63 1011.3
20260504234548 27 165 3.2 14.5 0.00 0.00 0.00 63 1011.4
20260504234039 27 214 3.2 16.1 0.00 0.00 0.00 64 1011.5
20260504233539 27 262 1.6 20.9 0.00 0.00 0.00 64 1011.4
20260504233049 27 224 6.4 20.9 0.00 0.00 0.00 64 1011.5
20260504232539 27 226 9.7 20.9 0.00 0.00 0.00 64 1011.5
20260504232042 27 207 3.2 11.3 0.00 0.00 0.00 64 1011.6
20260504231545 27 197 1.6 17.7 0.00 0.00 0.00 63 1011.7
20260504231039 27 259 3.2 17.7 0.00 0.00 0.00 63 1011.8
20260504230542 27 273 3.2 14.5 0.00 0.00 0.00 63 1011.8
20260504230051 27 203 3.2 14.5 0.00 0.00 0.00 63 1011.9
20260504225540 27 206 1.6 9.7 0.00 0.00 0.00 63 1011.9
20260504225042 27 255 1.6 12.9 0.00 0.00 0.00 64 1012.0
20260504224552 27 0 3.2 14.5 0.00 0.00 0.00 65 1012.3
20260504224039 27 230 3.2 16.1 0.00 0.00 0.00 64 1012.1
20260504223540 27 203 4.8 16.1 0.00 0.00 0.00 64 1012.2
20260504223047 27 231 3.2 19.3 0.00 0.00 0.00 64 1012.4
20260504222545 27 263 4.8 19.3 0.00 0.00 0.00 63 1012.3
20260504222040 27 236 1.6 12.9 0.00 0.00 0.00 64 1012.2
20260504221548 27 221 4.8 14.5 0.00 0.00 0.00 63 1012.2
20260504221040 27 192 6.4 14.5 0.00 0.00 0.00 63 1012.3
20260504220540 27 214 0.0 14.5 0.00 0.00 0.00 64 1012.4
20260504220052 27 258 6.4 14.5 0.00 0.00 0.00 63 1012.3
20260504215540 27 221 4.8 17.7 0.00 0.00 0.00 63 1012.3
20260504215040 27 164 4.8 17.7 0.00 0.00 0.00 63 1012.3
20260504214557 27 120 3.2 14.5 0.00 0.00 0.00 62 1012.3
20260504214040 27 209 3.2 16.1 0.00 0.00 0.00 62 1012.4
20260504213540 27 224 4.8 19.3 0.00 0.00 0.00 63 1012.4
20260504213050 27 233 3.2 19.3 0.00 0.00 0.00 63 1012.5
20260504212538 27 247 4.8 14.5 0.00 0.00 0.00 64 1012.7
20260504212043 27 247 6.4 11.3 0.00 0.00 0.00 64 1012.8
20260504211548 27 0 1.6 11.3 0.00 0.00 0.00 64 1013.0
20260504211041 27 203 0.0 14.5 0.00 0.00 0.00 64 1013.2
20260504210539 26 221 4.8 14.5 0.00 0.00 0.00 64 1013.2
20260504210059 26 208 4.8 12.9 0.00 0.00 0.00 65 1013.4
20260504205540 26 0 1.6 12.9 0.00 0.00 0.00 65 1013.5
20260504205041 26 212 4.8 16.1 0.00 0.00 0.00 65 1013.4
20260504204607 26 264 3.2 16.1 0.00 0.00 0.00 65 1013.5
20260504204041 26 0 1.6 12.9 0.00 0.00 0.00 64 1013.8
20260504203539 26 238 1.6 12.9 0.00 0.00 0.00 64 1013.8
20260504203106 26 0 3.2 12.9 0.00 0.00 0.00 65 1013.9
20260504202539 26 250 0.0 17.7 0.00 0.00 0.00 65 1013.9
20260504202040 26 0 1.6 17.7 0.00 0.00 0.00 65 1014.2
20260504201550 26 223 0.0 12.9 0.00 0.00 0.00 66 1014.0
20260504201040 26 283 4.8 12.9 0.00 0.00 0.00 66 1014.1
20260504200539 26 203 3.2 12.9 0.00 0.00 0.00 65 1014.2
20260504200054 26 126 3.2 19.3 0.00 0.00 0.00 66 1014.3
20260504195540 26 0 1.6 19.3 0.00 0.00 0.00 66 1014.3
20260504195038 26 239 6.4 19.3 0.00 0.00 0.00 64 1014.3
20260504194550 26 207 4.8 17.7 0.00 0.00 0.00 66 1014.3
20260504194038 26 190 6.4 17.7 0.00 0.00 0.00 65 1014.4
20260504193542 26 285 4.8 11.3 0.00 0.00 0.00 65 1014.5
20260504193051 26 222 0.0 11.3 0.00 0.00 0.00 66 1014.4
20260504192541 26 0 0.0 16.1 0.00 0.00 0.00 65 1014.6
20260504192041 26 233 6.4 16.1 0.00 0.00 0.00 66 1014.7
20260504191604 26 0 3.2 12.9 0.00 0.00 0.00 67 1014.7
20260504191038 26 214 3.2 19.3 0.00 0.00 0.00 67 1014.8
20260504190541 26 227 3.2 19.3 0.00 0.00 0.00 66 1014.8
20260504190056 26 222 0.0 14.5 0.00 0.00 0.00 67 1014.9
20260504185538 26 268 0.0 14.5 0.00 0.00 0.00 66 1015.0
20260504185041 26 245 6.4 17.7 0.00 0.00 0.00 66 1014.9
20260504184551 26 0 4.8 17.7 0.00 0.00 0.00 66 1014.9
20260504184039 26 203 3.2 16.1 0.00 0.00 0.00 66 1015.0
20260504183539 26 238 1.6 16.1 0.00 0.00 0.00 66 1015.3
20260504183046 26 255 6.4 16.1 0.00 0.00 0.00 66 1015.3
20260504182538 26 250 1.6 11.3 0.00 0.00 0.00 66 1015.2
20260504182038 26 244 3.2 17.7 0.00 0.00 0.00 65 1015.1
20260504181551 26 180 3.2 17.7 0.00 0.00 0.00 65 1015.4
20260504181038 26 4 3.2 16.1 0.00 0.00 0.00 66 1015.4
20260504180538 26 261 3.2 17.7 0.00 0.00 0.00 65 1015.6
20260504180058 26 203 9.7 20.9 0.00 0.00 0.00 67 1015.7
20260504175538 26 197 8.0 20.9 0.00 0.00 0.00 67 1015.6
20260504175040 26 38 1.6 17.7 0.00 0.00 0.00 65 1015.6
20260504174550 26 233 6.4 24.1 0.00 0.00 0.00 68 1015.8
20260504174038 25 253 6.4 24.1 0.00 0.00 0.00 69 1015.8
20260504173538 25 221 8.0 16.1 0.00 0.00 0.00 70 1015.8
20260504173107 25 252 0.0 16.1 0.00 0.00 0.00 70 1015.8
20260504172538 25 0 3.2 17.7 0.00 0.00 0.00 70 1016.1
20260504172038 25 226 8.0 19.3 0.00 0.00 0.00 68 1016.1
20260504171556 25 143 6.4 19.3 0.00 0.00 0.00 70 1016.0
20260504171040 25 69 8.0 19.3 0.00 0.00 0.00 69 1016.1
20260504170538 25 82 1.6 12.9 0.00 0.00 0.00 70 1016.2
20260504160106 22 253 4.8 19.3 0.00 0.00 0.00 76 1017.0
20260504151039 20 0 0.0 8.0 0.00 0.00 0.00 83 1017.4
20260504150540 20 0 0.0 11.3 0.00 0.00 0.00 82 1017.4
20260504141039 18 226 0.0 9.7 0.00 0.00 0.00 83 1017.1
20260504140544 19 0 0.0 6.4 0.00 0.00 0.00 83 1017.4
20260504130540 18 0 0.0 1.6 0.00 0.00 0.00 82 1017.1
20260504110539 -17 0.0 0.0 0.00 0.00 0.00 1016.8